TimeEST,TemperatureF,Dew PointF,Humidity,Sea Level PressureIn,VisibilityMPH,Wind Direction,Wind SpeedMPH,Gust SpeedMPH,PrecipitationIn,Events,Conditions,WindDirDegrees,DateUTC
12:15 AM,53.6,44.6,72,30.28,7.0,North,11.5,-,N/A,,Scattered Clouds,10,2012-11-18 05:15:00
12:35 AM,53.6,44.6,72,30.28,7.0,North,15.0,-,N/A,,Mostly Cloudy,10,2012-11-18 05:35:00
12:55 AM,53.6,44.6,72,30.28,7.0,North,13.8,-,N/A,,Overcast,10,2012-11-18 05:55:00
1:15 AM,53.6,44.6,72,30.27,7.0,North,15.0,18.4,N/A,,Overcast,10,2012-11-18 06:15:00
1:35 AM,53.6,44.6,72,30.26,7.0,North,13.8,19.6,N/A,,Overcast,10,2012-11-18 06:35:00
1:55 AM,53.6,44.6,72,30.26,7.0,North,17.3,-,N/A,,Overcast,10,2012-11-18 06:55:00
2:15 AM,53.6,42.8,67,30.26,7.0,North,15.0,24.2,N/A,,Scattered Clouds,360,2012-11-18 07:15:00
2:35 AM,53.6,42.8,67,30.25,7.0,North,15.0,21.9,N/A,,Scattered Clouds,10,2012-11-18 07:35:00
2:55 AM,53.6,42.8,67,30.25,7.0,North,15.0,20.7,N/A,,Scattered Clouds,10,2012-11-18 07:55:00
3:15 AM,53.6,42.8,67,30.24,7.0,North,15.0,19.6,N/A,,Mostly Cloudy,360,2012-11-18 08:15:00
3:35 AM,51.8,42.8,71,30.25,7.0,North,16.1,19.6,N/A,,Overcast,360,2012-11-18 08:35:00
3:55 AM,51.8,42.8,71,30.24,7.0,North,12.7,-,N/A,,Overcast,360,2012-11-18 08:55:00
4:15 AM,51.8,42.8,71,30.25,7.0,North,11.5,-,N/A,,Overcast,10,2012-11-18 09:15:00
4:35 AM,51.8,42.8,71,30.26,7.0,North,11.5,-,N/A,,Overcast,360,2012-11-18 09:35:00
4:55 AM,51.8,42.8,71,30.26,7.0,North,12.7,19.6,N/A,,Overcast,10,2012-11-18 09:55:00
5:15 AM,51.8,42.8,71,30.26,7.0,North,13.8,-,N/A,,Overcast,360,2012-11-18 10:15:00
5:35 AM,51.8,44.6,76,30.26,10.0,North,13.8,-,N/A,Rain,Rain,360,2012-11-18 10:35:00
5:55 AM,51.8,44.6,76,30.26,10.0,North,11.5,-,N/A,Rain,Light Rain,360,2012-11-18 10:55:00
6:15 AM,50.0,44.6,82,30.27,10.0,North,9.2,-,N/A,Rain,Light Rain,360,2012-11-18 11:15:00
6:35 AM,50.0,44.6,82,30.27,10.0,North,10.4,-,N/A,Rain,Light Rain,350,2012-11-18 11:35:00
6:55 AM,50.0,46.4,87,30.27,10.0,North,11.5,16.1,N/A,Rain,Rain,350,2012-11-18 11:55:00
7:15 AM,50.0,46.4,87,30.27,10.0,North,13.8,20.7,N/A,Rain,Light Rain,360,2012-11-18 12:15:00
7:35 AM,48.2,46.4,93,30.27,10.0,North,11.5,18.4,N/A,Rain,Light Rain,360,2012-11-18 12:35:00
7:55 AM,48.2,46.4,93,30.28,10.0,North,13.8,23.0,N/A,Rain,Light Rain,360,2012-11-18 12:55:00
8:15 AM,48.2,46.4,93,30.28,10.0,North,13.8,18.4,N/A,Rain,Rain,360,2012-11-18 13:15:00
8:35 AM,48.2,46.4,93,30.28,10.0,North,15.0,20.7,N/A,Rain,Light Rain,360,2012-11-18 13:35:00
8:55 AM,50.0,46.4,87,30.27,10.0,North,12.7,18.4,N/A,Rain,Light Rain,360,2012-11-18 13:55:00
9:15 AM,50.0,46.4,87,30.27,7.0,North,16.1,21.9,N/A,Rain,Light Rain,360,2012-11-18 14:15:00
9:35 AM,50.0,46.4,87,30.27,5.0,North,10.4,19.6,N/A,,Overcast,350,2012-11-18 14:35:00
9:55 AM,50.0,46.4,87,30.27,5.0,North,13.8,18.4,N/A,,Overcast,360,2012-11-18 14:55:00
10:15 AM,50.0,46.4,87,30.28,10.0,North,11.5,23.0,N/A,,Light Drizzle,350,2012-11-18 15:15:00
10:35 AM,50.0,46.4,87,30.28,10.0,North,12.7,20.7,N/A,Rain,Light Rain,350,2012-11-18 15:35:00
10:55 AM,50.0,46.4,87,30.27,10.0,North,12.7,-,N/A,Rain,Light Rain,350,2012-11-18 15:55:00
11:15 AM,50.0,46.4,87,30.27,10.0,NNW,11.5,18.4,N/A,Rain,Light Rain,340,2012-11-18 16:15:00
11:35 AM,51.8,48.2,88,30.27,10.0,North,12.7,19.6,N/A,Rain,Light Rain,360,2012-11-18 16:35:00
11:55 AM,51.8,48.2,88,30.26,10.0,North,13.8,19.6,N/A,Rain,Light Rain,350,2012-11-18 16:55:00
12:15 PM,51.8,48.2,88,30.25,10.0,NNW,10.4,18.4,N/A,Rain,Light Rain,340,2012-11-18 17:15:00
12:35 PM,51.8,48.2,88,30.24,10.0,NNW,16.1,20.7,N/A,Rain,Light Rain,330,2012-11-18 17:35:00
12:55 PM,50.0,48.2,94,30.23,10.0,NNW,13.8,23.0,N/A,Rain,Light Rain,330,2012-11-18 17:55:00
1:15 PM,50.0,48.2,94,30.22,10.0,NNW,13.8,21.9,N/A,Rain,Light Rain,340,2012-11-18 18:15:00
1:35 PM,50.0,48.2,94,30.21,10.0,NNW,15.0,20.7,N/A,Rain,Light Rain,340,2012-11-18 18:35:00
1:55 PM,50.0,48.2,94,30.20,10.0,NNW,17.3,26.5,N/A,Rain,Light Rain,340,2012-11-18 18:55:00
2:15 PM,51.8,48.2,88,30.20,7.0,NNW,16.1,25.3,N/A,,Light Drizzle,340,2012-11-18 19:15:00
2:35 PM,51.8,48.2,88,30.19,2.5,NNW,17.3,20.7,N/A,Rain,Rain,330,2012-11-18 19:35:00
2:55 PM,51.8,50.0,94,30.19,2.5,NNW,18.4,23.0,N/A,Rain,Light Rain,330,2012-11-18 19:55:00
3:15 PM,51.8,50.0,94,30.19,5.0,NNW,17.3,24.2,N/A,Rain,Light Rain,330,2012-11-18 20:15:00
3:35 PM,51.8,48.2,88,30.19,4.0,NNW,15.0,19.6,N/A,Rain,Light Rain,340,2012-11-18 20:35:00
3:55 PM,51.8,50.0,94,30.19,3.0,NNW,12.7,19.6,N/A,Rain,Light Rain,330,2012-11-18 20:55:00
4:15 PM,51.8,50.0,94,30.19,5.0,NNW,12.7,19.6,N/A,,Overcast,340,2012-11-18 21:15:00
4:35 PM,51.8,50.0,94,30.19,10.0,NNW,13.8,-,N/A,,Light Drizzle,340,2012-11-18 21:35:00
4:55 PM,51.8,50.0,94,30.20,10.0,NNW,11.5,-,N/A,,Overcast,340,2012-11-18 21:55:00
5:15 PM,51.8,50.0,94,30.20,7.0,NNW,12.7,20.7,N/A,,Overcast,340,2012-11-18 22:15:00
5:35 PM,51.8,50.0,94,30.20,7.0,NNW,16.1,21.9,N/A,Rain,Light Rain,340,2012-11-18 22:35:00
5:55 PM,51.8,50.0,94,30.21,10.0,NNW,12.7,21.9,N/A,,Light Drizzle,340,2012-11-18 22:55:00
6:15 PM,51.8,50.0,94,30.21,10.0,NNW,15.0,18.4,N/A,,Drizzle,340,2012-11-18 23:15:00
6:35 PM,51.8,50.0,94,30.21,10.0,NNW,13.8,20.7,N/A,Rain,Light Rain,340,2012-11-18 23:35:00
6:55 PM,51.8,50.0,94,30.22,10.0,NNW,15.0,23.0,N/A,Rain,Light Rain,340,2012-11-18 23:55:00
7:15 PM,51.8,50.0,94,30.21,7.0,NNW,16.1,21.9,N/A,,Overcast,340,2012-11-19 00:15:00
7:35 PM,51.8,50.0,94,30.22,7.0,North,15.0,21.9,N/A,,Overcast,350,2012-11-19 00:35:00
7:55 PM,51.8,50.0,94,30.22,7.0,NNW,16.1,19.6,N/A,,Overcast,340,2012-11-19 00:55:00
8:15 PM,51.8,50.0,94,30.21,7.0,North,13.8,23.0,N/A,,Overcast,350,2012-11-19 01:15:00
8:35 PM,53.6,50.0,88,30.21,7.0,North,17.3,25.3,N/A,,Overcast,350,2012-11-19 01:35:00
9:15 PM,53.6,50.0,88,30.21,10.0,North,15.0,23.0,N/A,Rain,Light Rain,360,2012-11-19 02:15:00
9:35 PM,53.6,50.0,88,30.21,7.0,North,11.5,25.3,N/A,,Overcast,350,2012-11-19 02:35:00
9:55 PM,51.8,50.0,94,30.21,5.0,North,17.3,21.9,N/A,,Overcast,350,2012-11-19 02:55:00
10:15 PM,51.8,50.0,94,30.21,7.0,North,16.1,24.2,N/A,,Overcast,350,2012-11-19 03:15:00
10:35 PM,53.6,50.0,88,30.21,7.0,North,17.3,21.9,N/A,,Overcast,360,2012-11-19 03:35:00
10:55 PM,53.6,50.0,88,30.21,7.0,North,16.1,24.2,N/A,,Overcast,350,2012-11-19 03:55:00
11:15 PM,53.6,50.0,88,30.20,7.0,North,17.3,24.2,N/A,,Overcast,350,2012-11-19 04:15:00
11:35 PM,53.6,50.0,88,30.20,7.0,North,15.0,19.6,N/A,,Overcast,360,2012-11-19 04:35:00